Regional Weather Roundup
Issued by NWS

Home | Current Version | Previous Version | Graphics & Text | Print | Product List | Glossary On
Versions: 1 2 3 4 5 6 7 8 9 10 11 12 13 14 15 16 17 18 19 20 21 22 23 24 25 26 27 28 29 30 31 32 33 34 35 36 37 38 39 40 41 42 43 44 45 46 47 48 49 50
594
ASUS45 KCYS 200410
RWRWY

WYOMING REGIONAL WEATHER ROUNDUP
NATIONAL WEATHER SERVICE CHEYENNE WY
1000 PM MDT THU APR 19 2018

NOTE:  "FAIR" INDICATES FEW OR NO CLOUDS BELOW 12,000 FEET
WITH NO SIGNIFICANT WEATHER AND/OR OBSTRUCTIONS TO VISIBILITY.

WYZ001-200500-
YELLOWSTONE NATIONAL PARK

CITY           SKY/WX    TMP DP  RH WIND       PRES   REMARKS
LK YELLOWSTONE   N/A     36  18  48 VRB3      30.07R
W YELLOWSTONE  NOT AVBL

$$
WYZ002>013-054>058-071-098>099-200500-
NORTHERN WYOMING

CITY           SKY/WX    TMP DP  RH WIND       PRES   REMARKS
JACKSON        FAIR      41  21  44 N17       29.93
CODY           FAIR      47  25  42 W6        30.02S
GREYBULL       FAIR      50  34  54 NW12      29.95F
WORLAND        FAIR      47  33  58 N3        29.96S
SHERIDAN       FAIR      49  31  49 E7        30.02S
BUFFALO        FAIR      50  28  42 SE5       30.06R
GILLETTE         N/A     50  31  48 SE21G29   30.06R
HULETT         FAIR      43  32  65 E13G24    30.13R
NEWCASTLE      FAIR      50  25  37 SE28G39   30.10S

$$
WYZ014>020-022>026-101>103-200500-
CENTRAL WYOMING

CITY           SKY/WX    TMP DP  RH WIND       PRES   REMARKS
BIG PINEY      FAIR      42   6  22 E7        29.90R
PINEDALE       MOCLDY    45  18  33 NE20      29.92R
DUBOIS         FAIR      36  18  48 SE8       30.00R WCI  29
LANDER         MOCLDY    45  25  45 W6        29.96R
RIVERTON       FAIR      47  24  40 N12       29.95R
CASPER         FAIR      49  26  41 E20       29.94R
DOUGLAS        FAIR      50  27  40 SE18G28   30.02R

$$
WYZ021-027>030-104>119-200500-
SOUTHERN WYOMING

CITY           SKY/WX    TMP DP  RH WIND       PRES   REMARKS
EVANSTON       MOCLDY    48  15  26 SE7       29.85R
KEMMERER       FAIR      46   7  19 SE7       29.89R
FORT BRIDGER   MOCLDY    49  18  29 SE17      29.90R
ROCK SPRINGS   CLOUDY    46  20  35 E16       29.90R
DIXON          CLOUDY    56  20  25 SW8G28    29.91R
RAWLINS        CLOUDY    50  17  27 NE12G21   29.90R
SARATOGA       CLOUDY    52  14  22 SE14      29.91R
LARAMIE        FAIR      43  19  38 SE30G39   29.96R
CHEYENNE       FAIR      44  23  43 SE24G32   30.03R
TORRINGTON     FAIR      48  29  47 SE23G35   30.04R
PINE BLUFFS    FAIR      45  23  42 SE26G35   30.05S

$$




USA.gov is the U.S. government's official web portal to all federal, state and local government web resources and services.